Weather observations for the past three days for
Kansas City, Kansas City Downtown Airport
Imperial (Metric)
Date Time (cdt) Wind (mph) Vis. (mi.) Weather Sky Cond. Temperature (ºF) Relative Humidity Wind Chill (°F) Heat Index (°F) Pressure Precipitation (in)
Air Dwpt 6 hour altimeter (in) sea level (mb) 1 hr 3 hr 6 hr
Max. Min.
16 09:54 S 12 10.00 Light Rain BKN110 73.9 71.1 91% 29.89 1011.1 0.02 0.12
16 08:54 N 15 G 23 8.00 Thunderstorm Light Rain FEW025 SCT050 BKN070 73.9 71.1 91% 29.87 1010.6 0.1
16 07:54 N 7 10.00 Fair CLR 82 72 72% 87 29.82 1008.6
16 06:54 W 6 10.00 Fair CLR 84 70 89.1 82 63% 88 29.77 1007.1
16 05:54 SW 7 10.00 Fair CLR 82 70 67% 86 29.76 1006.5
16 04:54 SW 6 10.00 Fair CLR 82.9 70 65% 87 29.75 1006.3
16 03:54 S 8 10.00 Fair CLR 82.9 71.1 67% 88 29.75 1006.3
16 02:54 SW 5 10.00 Fair CLR 84.9 71.1 63% 90 29.76 1006.6
16 01:54 SW 6 10.00 Fair CLR 86 71.1 61% 92 29.77 1006.9
16 00:54 NW 5 10.00 Fair CLR 89.1 71.1 95 88 55% 95 29.78 1007.3
15 23:54 SW 7 10.00 Fair CLR 90 71.1 54% 96 29.77 1006.9
15 22:54 S 13 10.00 Fair CLR 90 73 58% 98 29.75 1006.3
15 21:54 SW 15 10.00 Fair CLR 91 73.9 57% 101 29.73 1005.8
15 20:54 SW 12 10.00 Fair CLR 91.9 73.9 56% 102 29.71 1005.0
15 19:54 S 16 G 25 10.00 Fair CLR 93 73 52% 102 29.71 1004.8
15 18:54 SW 22 G 30 10.00 Fair and Breezy CLR 96.1 72 99 95 46% 105 29.7 1004.5
15 17:54 S 18 G 31 10.00 Fair CLR 97 72 45% 106 29.71 1004.8
15 16:54 S 17 G 32 10.00 Fair CLR 96.1 71.1 44% 104 29.73 1005.6
15 15:54 SW 20 10.00 Fair CLR 98.1 72 43% 107 29.76 1006.6
15 13:54 S 15 G 24 10.00 Fair CLR 96.1 73.9 49% 107 29.8 1008.1
15 12:54 S 17 10.00 Fair CLR 95 73 95 82.9 49% 105 29.81 1008.5
15 11:54 SW 14 G 22 10.00 Fair CLR 93 72 50% 101 29.82 1008.7
15 10:54 S 15 G 22 10.00 Fair CLR 90 72 56% 97 29.83 1009.2
15 09:54 S 13 10.00 Fair CLR 88 72 59% 95 29.84 1009.4
15 08:54 S 14 10.00 Fair CLR 86 71.1 61% 92 29.85 1009.7
15 07:54 S 12 G 20 10.00 Fair CLR 84 71.1 65% 89 29.85 1009.8
15 06:54 S 12 10.00 Fair CLR 82.9 71.1 84.9 82.9 67% 88 29.86 1009.9
15 05:54 S 10 10.00 Fair CLR 82.9 70 65% 87 29.86 1010.1
15 04:54 SW 9 10.00 Fair CLR 82.9 71.1 67% 88 29.86 1010.0
15 03:54 S 8 10.00 Fair CLR 82.9 72 70% 88 29.87 1010.2
15 02:54 SW 10 10.00 Fair CLR 84 72 67% 90 29.88 1010.6
15 01:54 S 10 10.00 Fair CLR 84 73 70% 90 29.89 1011.1
15 00:54 S 13 10.00 Fair CLR 84.9 73 93.9 84.9 68% 92 29.9 1011.3
14 23:54 SW 14 10.00 Fair CLR 86 73 65% 93 29.89 1011.2
14 22:54 S 10 10.00 Fair CLR 87.1 73 63% 95 29.89 1010.9
14 21:54 S 9 10.00 Fair CLR 88 73.9 63% 97 29.88 1010.8
14 20:54 S 9 10.00 Fair CLR 89.1 73 59% 97 29.88 1010.8
14 19:54 S 14 10.00 Fair CLR 91.9 73 54% 101 29.88 1010.7
14 18:54 S 14 10.00 Fair CLR 93.9 73 96.1 91.9 51% 103 29.88 1010.7
14 17:54 S 13 10.00 Fair CLR 95 73.9 51% 106 29.88 1010.8
14 16:54 SW 18 G 25 10.00 Fair CLR 95 73 49% 105 29.9 1011.4
14 15:54 SW 13 G 22 10.00 Fair CLR 96.1 73.9 49% 107 29.91 1011.7
14 14:54 SW 15 G 21 10.00 Fair CLR 95 73.9 51% 106 29.92 1012.2
14 13:54 SW 12 G 24 10.00 Fair CLR 93.9 73.9 52% 104 29.93 1012.4
14 12:54 SW 10 10.00 Fair CLR 91.9 73.9 91.9 78.1 56% 102 29.96 1013.3
14 11:54 SW 13 G 23 10.00 Fair CLR 90 73 58% 98 29.97 1013.9
14 10:54 SW 12 10.00 Fair CLR 88 72 59% 95 30 1014.8
14 09:54 S 9 10.00 Fair CLR 84.9 72 65% 91 29.97 1013.8
14 08:54 S 14 10.00 Fair CLR 82 71.1 69% 86 29.97 1013.9
14 07:54 SW 10 10.00 Fair CLR 79 72 79% 82 30.02 1015.7
14 06:54 S 10 10.00 Light Rain FEW055 79 70 82.9 79 74% 82 30.02 1015.5 0.08
14 05:54 S 5 G 17 10.00 Thunderstorm in Vicinity CLR 79 70 74% 82 30 1015.1
14 04:54 S 18 G 30 10.00 Thunderstorm in Vicinity FEW034 80.1 70 71% 83 29.98 1014.2 0.08
14 03:54 NW 7 10.00 Thunderstorm CLR 82.9 66.9 59% 86 29.99 1014.6
14 02:54 S 14 10.00 Fair CLR 82 66.9 60% 85 29.97 1013.7
14 01:54 S 14 G 22 10.00 Fair CLR 82.9 68 61% 86 29.99 1014.7
14 00:54 S 15 G 25 10.00 Fair CLR 82.9 68 90 82.9 61% 86 30 1014.9
13 23:54 S 13 10.00 Fair CLR 84 68 59% 87 30.01 1015.1
13 22:54 S 15 G 23 10.00 Fair CLR 84.9 68 57% 88 30.01 1015.2
13 21:54 S 16 G 24 10.00 Fair CLR 86 68 55% 89 30 1014.8
13 20:54 S 12 10.00 Fair CLR 87.1 66.9 51% 90 29.99 1014.5
13 19:54 S 14 G 21 10.00 Fair CLR 89.1 68 50% 93 29.99 1014.5
13 18:54 S 17 10.00 Fair CLR 90 69.1 93.9 87.1 50% 95 29.99 1014.7
13 17:54 S 16 10.00 Fair CLR 91.9 69.1 47% 97 30.01 1015.1
13 16:54 S 20 G 29 10.00 Fair CLR 93 68 44% 97 30.01 1015.2
13 15:54 S 21 G 29 10.00 Fair and Breezy CLR 93 66.9 42% 97 30.02 1015.5
13 14:54 SW 14 G 29 10.00 Fair CLR 93 68 44% 97 30.04 1016.2
13 13:54 S 18 G 26 10.00 Fair CLR 91 70 50% 97 30.05 1016.7
13 12:54 S 15 G 26 10.00 Fair CLR 87.1 71.1 87.1 79 59% 93 30.07 1017.3
13 11:54 S 13 G 22 10.00 Fair CLR 84.9 71.1 63% 90 30.09 1018.1
13 10:54 SE 18 G 26 10.00 Thunderstorm in Vicinity FEW026 82.9 70 65% 87 30.1 1018.5
Date Time (cdt) Wind (mph) Vis. (mi.) Weather Sky Cond. Air Dwpt Max. Min. Relative Humidity Wind Chill (°F) Heat Index (°F) altimeter (in) sea level (mb) 1 hr 3 hr 6 hr
6 hour
Temperature (ºF) Pressure Precipitation (in)